This demonstration page uses our WeatherBlox Daily Observations layout. Learn more.

Left ArrowRight Arrow

Hourly Observations for May 19, 2022

Temp ( °F °C ) Dew Point ( °F °C ) Humidity (%) Winds ( mph kmh ) Pressure ( in mb ) Visibility ( mi km ) Precip ( " mm )
12:54 am 00:54 Clear 66 18.9 54 12.2 65 65 S 8 13 29.71 1006 10 16 0.00 0.00
1:54 am 01:54 Clear 69 20.6 58 14.4 68 68 S 7 11 29.69 1006 10 16 0.00 0.00
2:54 am 02:54 Clear 65 18.3 58 14.4 78 78 S 6 9 29.65 1004 10 16 0.00 0.00
3:54 am 03:54 Clear 64 17.8 59 15 84 84 S 7 11 29.63 1004 10 16 0.00 0.00
4:54 am 04:54 Clear 64 17.8 60 15.6 87 87 S 7 11 29.62 1003 10 16 0.00 0.00
5:54 am 05:54 Clear 64 17.8 60 15.6 87 87 S 6 9 29.60 1003 10 16 0.00 0.00
7:54 am 07:54 Sunny 71 21.7 64 17.8 79 79 S 8 13 29.57 1001 10 16 0.00 0.00
8:54 am 08:54 Sunny 75 23.9 65 18.3 71 71 S 13 20 29.54 1000 10 16 0.00 0.00
9:54 am 09:54 Sunny 77 25 65 18.3 66 66 S 14 22 29.52 1000 10 16 0.00 0.00
10:54 am 10:54 Sunny 80 26.7 67 19.4 64 64 S 21 33 29.49 999 10 16 0.00 0.00
11:54 am 11:54 Sunny 84 28.9 66 18.9 55 55 SSW 20 31 29.45 997 10 16 0.00 0.00
12:54 pm 12:54 Sunny 87 30.6 65 18.3 48 48 SSW 23 37 29.41 996 10 16 0.00 0.00
1:54 pm 13:54 Sunny 90 32.2 61 16.1 38 38 SSW 20 31 29.36 994 10 16 0.00 0.00
2:54 pm 14:54 Sunny 90 32.2 55 12.8 31 31 SSW 24 39 29.33 993 10 16 0.00 0.00
3:54 pm 15:54 Sunny 92 33.3 53 11.7 27 27 SW 22 35 29.30 992 10 16 0.00 0.00
4:54 pm 16:54 Sunny 90 32.2 56 13.3 32 32 SSW 17 28 29.28 992 10 16 0.00 0.00
5:54 pm 17:54 Sunny 90 32.2 58 14.4 34 34 SSW 21 33 29.26 991 10 16 0.00 0.00
6:54 pm 18:54 Sunny 88 31.1 59 15 38 38 SSW 16 26 29.24 990 10 16 0.00 0.00
7:54 pm 19:54 Sunny 86 30 60 15.6 42 42 S 14 22 29.23 990 10 16 0.00 0.00
8:54 pm 20:54 Clear 82 27.8 66 18.9 58 58 S 14 22 29.23 990 10 16 0.00 0.00
9:54 pm 21:54 Clear 80 26.7 64 17.8 58 58 S 14 22 29.23 990 10 16 0.00 0.00
10:47 pm 22:47 Mostly Clear 77 25 58 14.4 52 52 N 22 35 29.30 992 10 16 0.00 0.00
10:54 pm 22:54 Mostly Clear 71 21.7 54 12.2 55 55 N 24 39 29.33 993 10 16 0.00 0.00
11:54 pm 23:54 Mostly Cloudy 63 17.2 49 9.4 60 60 N 30 48 29.39 995 10 16 0.00 0.00

Powered by AerisWeather